Location: Bau
(6.6835°N, 10.6706°W)
Time: 07:30:37
(UTC+00:00)

Daily predictions for brighter satellites

Satellite Brightness Start Highest point End
(mag) Time Altitude Azimuth Time Altitude Azimuth Time Altitude Azimuth
Ariane H10 3.7 18:04:30 10° W 18:08:22 70° S 18:29:37 10° E
Cosmos 1992 Rocket 4.1 18:39:15 10° SSW 18:44:28 87° WNW 18:49:40 10° NNE
Okean-O 4.3 18:43:23 10° ESE 18:45:31 13° ENE 18:47:38 10° NE
CZ-4B R/B 3.7 18:40:53 10° S 18:46:32 71° WSW 18:52:07 10° NNW
Milstar 3 Cent rocket 4.4 18:26:35 10° WNW 18:47:00 79° SSW 18:55:50 10° SE
AQUARIUS 4.4 18:43:10 10° S 18:47:40 78° W 18:52:08 10° NNW
Cosmos 1758 Rocket 4.1 18:43:28 10° NNW 18:47:45 64° W 18:52:00 10° S
Cosmos 2369 3.8 18:43:24 10° SSW 18:49:08 85° WNW 18:54:51 10° NNE
Meteor 2-14 Rocket 4.5 18:44:01 10° N 18:50:07 90° E 18:56:12 10° S
Cosmos 1850 Rocket 4.3 18:46:39 10° NNW 18:51:59 77° WSW 18:57:18 10° S
Meteor 2-15 4.4 18:47:01 10° S 18:53:07 70° E 18:59:13 10° N
CZ-4 R/B 2.9 18:52:15 10° ESE 18:54:29 15° ENE 18:56:40 10° NE
CZ-2C R/B 3.3 18:52:03 10° S 18:54:38 15° SE 18:57:09 10° ESE
ARIANE 5 R/B 3.0 18:51:18 10° WSW 18:55:10 20° SSW 18:57:06 10° SSE
SL-16 R/B 3.8 19:01:15 10° SE 19:03:41 13° ESE 19:04:35 12° E
Spelda 3.7 18:56:34 10° W 19:08:06 56° S 19:10:57 15° ESE
USA 276 2.0 19:07:10 10° NW 19:10:20 78° NE 19:13:32 10° SE
Meteor 2-1 Rocket 4.2 19:06:38 10° S 19:12:13 84° W 19:17:44 10° N
CZ-2D R/B 3.6 19:09:03 10° SSE 19:12:40 41° ENE 19:16:15 10° N
CZ-2C R/B 3.7 19:11:03 14° ENE 19:14:11 24° E 19:18:19 10° SSE
Cosmos 1892 3.4 19:13:29 10° NNE 19:16:58 32° E 19:20:26 10° SSE
Cosmos 2058 4.1 19:17:22 21° E 19:17:22 21° E 19:20:10 10° SE
Cosmos 1697 Rocket 4.5 19:12:12 10° SW 19:17:09 32° WNW 19:22:07 10° N
IRS-1C Rocket 4.0 19:12:18 10° SSE 19:17:31 67° ENE 19:22:43 10° N
Cosmos 1315 Rocket 3.6 19:16:43 10° SSW 19:20:32 53° W 19:24:21 10° N
Cosmos 1745 Rocket 4.5 19:16:04 10° NNE 19:21:52 38° E 19:27:40 10° SSE
Cosmos 2227 Rocket 3.9 19:18:43 10° NNE 19:19:55 14° NE 19:19:55 14° NE
ATLAS 2AS CENTAUR RB 1.0 19:20:49 10° WNW 19:22:37 33° N 19:22:51 31° NNE
Hubble Space Telescope 1.6 19:21:32 10° NW 19:25:14 32° NNE 19:26:11 29° NE
ARIANE DEB (SPELDA) 3.9 19:27:40 10° WSW 19:31:15 60° SSE 19:39:41 21° E
SWIFT 3.2 19:27:32 10° NW 19:31:24 33° NNE 19:32:14 30° NE
Cosmos 1980 Rocket 3.3 19:34:28 10° SW 19:39:49 44° WNW 19:45:09 10° N
CRYOSAT 2 4.5 19:37:32 10° N 19:42:22 75° W 19:47:14 10° S
EO 1 Delta rocket 3.8 19:39:17 13° NNE 19:43:25 71° E 19:48:39 10° S
CSL-04 Debris 4.4 19:40:38 10° SE 19:45:41 41° ENE 19:50:44 10° N
Cosmos 2315 Rocket 3.9 19:41:50 10° S 19:48:05 87° E 19:54:18 10° N
YAOGAN 1 2.4 19:45:01 10° SSE 19:49:20 79° ENE 19:53:38 10° N
Cosmos 1340 3.9 19:46:47 10° NNW 19:50:21 42° W 19:53:56 10° SSW
Cosmos-2242 2.9 19:48:57 10° S 19:53:11 87° W 19:54:27 45° N
GPS 2-12 Rocket1 3.6 19:51:19 10° NW 19:55:02 42° N 19:55:02 42° N
ARIANE 5 R/B 3.8 19:43:51 10° WSW 19:58:06 33° SSW 20:00:00 25° SSE
GPS 2-14 Rocket1 4.4 19:55:32 10° NW 19:57:53 24° NNW 19:57:53 24° NNW
Cosmos 2297 Rocket 2.0 19:56:38 10° N 20:02:14 65° ENE 20:02:29 64° E
CZ-2C R/B 3.3 19:56:44 10° S 20:02:31 81° WSW 20:08:20 10° NNW
Cosmos 2322 Rocket 2.7 20:06:05 10° S 20:10:08 43° SSE 20:10:08 43° SSE
ARIANE 5 DEB (SYLDA) 3.7 20:10:49 10° W 20:23:13 59° S 20:23:42 57° SSE
Sea Lan Dem Rocket 3.5 20:23:22 10° WSW 20:26:05 39° SSW 20:26:05 39° SSW
CZ-4 R/B 4.0 20:26:24 10° SW 20:29:14 19° W 20:32:00 10° NW
Cosmos 2219 3.9 20:27:05 10° NNW 20:32:38 53° WSW 20:38:11 10° S
CZ-2C R/B 3.6 20:30:11 10° WSW 20:31:49 22° WSW 20:31:49 22° WSW
H-2A R/B 3.0 20:29:51 10° S 20:39:29 14° NNW 20:40:10 10° NNW
SL-16 R/B 3.3 20:42:06 10° SW 20:46:31 40° W 20:46:31 40° W
Ariane H10+ 4.0 20:43:42 10° WSW 20:50:03 56° S 20:52:23 50° SE
Longmarch 3A Rocket 4.3 20:49:51 10° NW 21:20:07 14° ESE 21:26:46 10° ESE
ATLAS 3B CENTAUR R/B 4.1 21:07:44 10° SW 21:12:17 44° SSW 21:12:17 44° SSW
